DIRECTV 15 (40663 NORAD) Tracking and Keplerian Element Data

This shows tracking and keplerian element data for the satellite.

Feedback or suggestion? Click here.




ElementValue
Catalog40663
NameDIRECTV 15
Epoch Orbit2683
Epoch Day269.65014108
Epoch Year2022
RAAN139.6332
Inclination0.0137
Eccentricity6.87E-05
Argument of Perigee271.7588
Mean Anonmoly85.2508
Mean Motion1.00272142
Decay Rate-1E-06
L11 40663U 15026A 22269.65014108 -.00000100 00000+0 00000+0 0 9999
L22 40663 0.0137 139.6332 0000687 271.7588 85.2508 1.00272142 26834

Live tracking and technical data element details for DIRECTV 15 (NORAD 40663). DIRECTV 15 can be tracked NOW for your location showing map with azimuth and elevation plus other details from your city location.

Track the satellite on the map from your city or location and see movement details for azimuth, elevation, latitude, longitude, range, height, and movement on the map or in text.







IsCatalogInMostPopularTable: catalog: 40663, numindb: 736
Update: records affected: 1



GetName: 40663 DIRECTV 15

Hit Count: updated at: Fri, 30 Sep 2022 02:37:58 GMT